TimeBST,TemperatureF,Dew PointF,Humidity,Sea Level PressureIn,VisibilityMPH,Wind Direction,Wind SpeedMPH,Gust SpeedMPH,PrecipitationIn,Events,Conditions,WindDirDegrees,DateUTC
1:00 AM,59,59,99,29.94,2,NW,5.8,,,,Mist,320,2012-10-10 00:00:00
3:50 AM,59.0,57.2,94,29.92,1.9,WNW,4.6,-,N/A,,Light Drizzle,300,2012-10-10 02:50:00
4:00 AM,58,58,99,29.93,2,WNW,4.6,,,Rain,Light Drizzle,300,2012-10-10 03:00:00
4:20 AM,59.0,57.2,94,29.92,0.5,NW,2.3,-,N/A,Fog,Light Drizzle,310,2012-10-10 03:20:00
4:50 AM,57.2,57.2,100,29.92,0.9,West,2.3,-,N/A,Rain,Light Rain,280,2012-10-10 03:50:00
5:20 AM,59.0,59.0,100,29.92,0.9,WNW,2.3,-,N/A,Rain,Light Rain,300,2012-10-10 04:20:00
5:50 AM,59.0,59.0,100,29.92,1.2,West,2.3,-,N/A,,Mostly Cloudy,280,2012-10-10 04:50:00
6:20 AM,59.0,59.0,100,29.92,1.6,West,5.8,-,N/A,,Mostly Cloudy,270,2012-10-10 05:20:00
6:50 AM,59.0,59.0,100,29.92,3.7,WNW,4.6,-,N/A,,Mostly Cloudy,290,2012-10-10 05:50:00
7:00 AM,58,58,100,29.93,4,WNW,5.8,,,,Mist,290,2012-10-10 06:00:00
7:20 AM,59.0,59.0,100,29.92,6.2,West,4.6,-,N/A,,Mostly Cloudy,280,2012-10-10 06:20:00
7:50 AM,59.0,59.0,100,29.92,6.2,NW,1.2,-,N/A,,Mostly Cloudy,310,2012-10-10 06:50:00
8:20 AM,59.0,59.0,100,29.92,6.2,NE,2.3,-,N/A,,Mostly Cloudy,40,2012-10-10 07:20:00
8:50 AM,59.0,59.0,100,29.92,3.7,ESE,1.2,-,N/A,,Light Drizzle,120,2012-10-10 07:50:00
9:20 AM,59.0,59.0,100,29.92,6.2,WNW,1.2,-,N/A,,Mostly Cloudy,290,2012-10-10 08:20:00
9:50 AM,59.0,59.0,100,29.92,6.2,East,4.6,-,N/A,,Scattered Clouds,100,2012-10-10 08:50:00
10:00 AM,58,58,99,29.94,4,SE,2.3,,,Rain,Light Drizzle,130,2012-10-10 09:00:00
10:20 AM,60.8,60.8,100,29.95,6.2,ESE,3.5,-,N/A,,Scattered Clouds,120,2012-10-10 09:20:00
10:50 AM,60.8,59.0,94,29.92,6.2,West,3.5,-,N/A,,Mostly Cloudy,260,2012-10-10 09:50:00
11:20 AM,60.8,59.0,94,29.95,6.2,Variable,3.5,-,N/A,,Mostly Cloudy,0,2012-10-10 10:20:00
11:50 AM,60.8,59.0,94,29.92,6.2,Variable,3.5,-,N/A,,Mostly Cloudy,0,2012-10-10 10:50:00
12:20 PM,64.4,60.8,88,29.92,6.2,SSE,4.6,-,N/A,,Mostly Cloudy,160,2012-10-10 11:20:00
12:50 PM,62.6,57.2,82,29.92,6.2,South,5.8,-,N/A,,Mostly Cloudy,190,2012-10-10 11:50:00
1:00 PM,63,58,80,29.94,5,SSW,4.6,,,Fog,Light Fog,210,2012-10-10 12:00:00
1:20 PM,62.6,59.0,88,29.92,6.2,South,5.8,-,N/A,,Mostly Cloudy,190,2012-10-10 12:20:00
1:50 PM,60.8,59.0,94,29.92,6.2,South,4.6,-,N/A,Fog,Mostly Cloudy,180,2012-10-10 12:50:00
2:20 PM,60.8,59.0,94,29.89,6.2,Variable,6.9,-,N/A,Fog,Mostly Cloudy,0,2012-10-10 13:20:00
2:50 PM,62.6,59.0,88,29.89,6.2,SE,9.2,-,N/A,,Mostly Cloudy,130,2012-10-10 13:50:00
3:20 PM,60.8,59.0,94,29.89,6.2,ESE,6.9,-,N/A,,Mostly Cloudy,120,2012-10-10 14:20:00
3:50 PM,62.6,57.2,82,29.89,6.2,SE,6.9,-,N/A,,Mostly Cloudy,140,2012-10-10 14:50:00
4:00 PM,62,58,81,29.89,25,SSE,5.8,,,Fog,Light Fog,150,2012-10-10 15:00:00
4:20 PM,62.6,57.2,82,29.89,6.2,ESE,8.1,-,N/A,,Mostly Cloudy,120,2012-10-10 15:20:00
4:50 PM,60.8,57.2,88,29.86,6.2,SE,10.4,-,N/A,,Mostly Cloudy,130,2012-10-10 15:50:00
5:20 PM,60.8,57.2,88,29.86,6.2,East,11.5,-,N/A,Fog,Mostly Cloudy,90,2012-10-10 16:20:00
5:50 PM,60.8,59.0,94,29.86,6.2,East,9.2,-,N/A,Fog,Mostly Cloudy,100,2012-10-10 16:50:00
6:20 PM,59.0,57.2,94,29.86,6.2,ESE,11.5,-,N/A,Fog,Mostly Cloudy,110,2012-10-10 17:20:00
6:50 PM,59.0,57.2,94,29.86,6.2,ESE,10.4,-,N/A,,Mostly Cloudy,110,2012-10-10 17:50:00
7:00 PM,59,57,92,29.86,3,ESE,11.5,,,Fog,Light Fog,110,2012-10-10 18:00:00
7:20 PM,59.0,57.2,94,29.86,6.2,East,10.4,-,N/A,,Scattered Clouds,100,2012-10-10 18:20:00
7:50 PM,59.0,57.2,94,29.86,5.0,ESE,10.4,-,N/A,,Mostly Cloudy,110,2012-10-10 18:50:00
8:20 PM,59.0,59.0,100,29.83,3.1,ESE,12.7,-,N/A,Rain,Light Rain,120,2012-10-10 19:20:00
8:50 PM,59.0,57.2,94,29.83,1.9,ESE,12.7,-,N/A,,Light Drizzle,110,2012-10-10 19:50:00
9:20 PM,59.0,57.2,94,29.83,1.9,ESE,12.7,-,N/A,,Light Drizzle,110,2012-10-10 20:20:00
10:00 PM,58,58,100,29.83,2,ESE,10.4,,,Rain,Light Drizzle,110,2012-10-10 21:00:00